Kansas City International, MO

8:24 AM CDT on April 22, 2018 (GMT -0500)
Kansas City International

Weather History for KMCI - September, 2013

Change the Weather History Date:

Monday, September 30, 2013

  Actual Average Record
Temperature  
Mean Temperature 62 °F 62 °F  
Max Temperature 77 °F 73 °F 93 °F (1938)
Min Temperature 47 °F 51 °F 33 °F (1984)
Degree Days  
Heating Degree Days 3 5  
Month to date heating degree days 19 64  
Since 1 July heating degree days 19 67  
Cooling Degree Days 0 2  
Month to date cooling degree days 223 159  
Year to date cooling degree days 1317 1332  
Growing Degree Days 12 (Base 50)    
Moisture  
Dew Point 53 °F    
Average Humidity 71    
Maximum Humidity 93    
Minimum Humidity 49    
Precipitation  
Precipitation 0.00 in 0.13 in 2.52 in (1923)
Month to date precipitation 4.84 4.62  
Year to date precipitation 27.51 32.02  
Snow  
Snow 0.00 in 0.00 in 0.00 in ()
Month to date snowfall 0.0 0.0  
Since 1 July snowfall 0.0 0.0  
Since 1 September snowfall 0.0 0.0  
Snow Depth 0.00 in    
Sea Level Pressure  
Sea Level Pressure 29.87 in    
Wind  
Wind Speed 9 mph (South)    
Max Wind Speed 16 mph    
Max Gust Speed 21 mph    
Visibility 10 miles    
Events      
T = Trace of Precipitation, MM = Missing Value Source: NWS Daily Summary

Daily Weather History Graph

Daily Weather History Graph

Search for Another Location

Airport or City:

Astronomy

Sep. 30, 2013 Rise Set
Actual Time 7:14 AM CDT 7:02 PM CDT
Civil Twilight 6:47 AM CDT 7:29 PM CDT
Nautical Twilight 6:16 AM CDT 8:00 PM CDT
Astronomical Twilight 5:44 AM CDT 8:31 PM CDT
Moon 2:53 AM CDT (9/30) 4:32 PM CDT (9/30)
Length of Visible Light 12h 41m
Length of Day
11h 48m
Waning Crescent, 19% of the Moon is Illuminated
Sep 30
Waning Crescent
Oct 4
New
Oct 11
First Quarter
Oct 18
Full
Oct 26
Last Quarter

Hourly Weather History & Observations

Time (CDT) Temp. Dew Point Humidity Pressure Visibility Wind Dir Wind Speed Gust Speed Precip Events Conditions
12:53 AM 53.1 °F 48.0 °F 83% 29.93 in 10.0 mi SSE 6.9 mph - N/A   Clear
1:53 AM 55.0 °F 50.0 °F 83% 29.93 in 10.0 mi South 3.5 mph - N/A   Clear
2:53 AM 51.1 °F 46.9 °F 86% 29.92 in 10.0 mi South 3.5 mph - N/A   Clear
3:53 AM 53.1 °F 48.9 °F 86% 29.91 in 10.0 mi SW 3.5 mph - N/A   Clear
4:53 AM 51.1 °F 48.0 °F 89% 29.91 in 10.0 mi South 5.8 mph - N/A   Clear
5:53 AM 50.0 °F 46.9 °F 89% 29.90 in 10.0 mi SSE 5.8 mph - N/A   Clear
6:53 AM 48.9 °F 46.0 °F 90% 29.91 in 10.0 mi SSE 3.5 mph - N/A   Partly Cloudy
7:53 AM 50.0 °F 48.0 °F 93% 29.91 in 10.0 mi South 6.9 mph - N/A   Partly Cloudy
8:53 AM 57.0 °F 52.0 °F 83% 29.91 in 10.0 mi South 6.9 mph - N/A   Scattered Clouds
9:53 AM 63.0 °F 54.0 °F 72% 29.90 in 10.0 mi SSW 6.9 mph - N/A   Mostly Cloudy
10:53 AM 66.0 °F 54.0 °F 65% 29.90 in 10.0 mi South 11.5 mph - N/A   Mostly Cloudy
11:53 AM 70.0 °F 53.1 °F 55% 29.89 in 10.0 mi SW 11.5 mph - N/A   Mostly Cloudy
12:53 PM 73.0 °F 53.1 °F 49% 29.87 in 10.0 mi SSW 15.0 mph - N/A   Mostly Cloudy
1:53 PM 73.9 °F 55.0 °F 52% 29.84 in 10.0 mi South 13.8 mph 18.4 mph N/A   Mostly Cloudy
2:53 PM 75.9 °F 55.0 °F 48% 29.83 in 10.0 mi South 15.0 mph - N/A   Mostly Cloudy
3:53 PM 75.9 °F 55.9 °F 50% 29.81 in 10.0 mi South 15.0 mph - N/A   Clear
4:53 PM 75.9 °F 57.0 °F 52% 29.81 in 10.0 mi South 10.4 mph - N/A   Mostly Cloudy
5:53 PM 75.0 °F 59.0 °F 57% 29.82 in 10.0 mi South 9.2 mph - N/A   Mostly Cloudy
6:53 PM 66.0 °F 57.9 °F 75% 29.82 in 10.0 mi SSE 6.9 mph - N/A   Mostly Cloudy
7:53 PM 64.0 °F 57.9 °F 80% 29.83 in 10.0 mi South 8.1 mph - N/A   Mostly Cloudy
8:53 PM 64.0 °F 57.0 °F 78% 29.82 in 10.0 mi South 9.2 mph - N/A   Scattered Clouds
9:53 PM 63.0 °F 55.9 °F 78% 29.83 in 10.0 mi South 10.4 mph - N/A   Scattered Clouds
10:53 PM 61.0 °F 55.0 °F 81% 29.83 in 10.0 mi South 9.2 mph - N/A   Scattered Clouds
11:53 PM 60.1 °F 54.0 °F 80% 29.84 in 10.0 mi South 9.2 mph - N/A   Clear